Wind_Speed
36 35 35 35 34 33 32 32 32 32 31 31 31 31 30 27 26 25 24 24 24 24 22 20 18 19 21 21 20 19 18 16 16 16 17 17 17 16 16 17 17 17
37 36 36 35 34 33 33 33 33 32 32 32 32 31 30 29 27 26 25 24 25 25 23 21 20 19 20 21 21 20 20 18 17 17 18 18 18 18 18 18 18 18
37 37 36 35 35 34 34 33 33 32 32 32 32 31 31 30 29 28 27 25 25 25 24 23 21 20 20 21 21 21 21 20 19 18 18 19 19 19 19 18 18 19
38 37 37 37 36 36 34 33 33 33 32 32 32 32 31 31 31 30 29 27 26 26 26 25 23 22 21 21 21 21 22 22 21 20 19 19 19 20 19 19 19 20
39 38 38 38 37 35 34 33 34 34 34 34 33 33 32 31 31 31 31 30 28 27 27 27 25 24 23 22 22 22 22 22 22 21 21 21 20 20 20 20 21 21
38 38 38 38 36 35 34 34 35 34 34 34 34 33 33 32 32 32 32 31 30 29 28 28 27 26 25 24 23 23 24 24 23 22 23 23 22 21 21 21 22 23
37 37 37 37 36 35 35 35 35 34 34 33 33 33 33 32 32 32 32 32 31 30 30 30 29 28 27 26 25 25 25 25 24 24 24 24 23 23 23 23 24 24
37 37 37 36 35 35 35 35 34 34 34 32 32 33 32 32 32 32 32 31 30 30 30 30 31 30 28 27 26 26 26 26 26 26 25 25 25 25 26 25 26 26
37 37 37 36 36 36 35 35 35 34 33 32 33 33 32 32 32 31 31 30 30 30 30 30 31 31 30 29 28 28 28 27 27 27 27 27 27 27 27 27 27 28
37 36 36 36 36 36 36 36 35 34 33 33 33 32 32 32 32 31 31 31 30 30 30 31 31 31 31 30 30 30 29 29 28 28 28 28 28 28 28 27 28 29
37 36 36 36 36 36 36 36 35 33 33 33 32 32 32 32 32 32 32 32 32 32 32 32 32 32 32 31 31 31 30 30 29 28 28 28 29 29 28 28 28 29
37 37 37 37 37 36 36 35 34 33 33 33 32 32 32 32 32 33 33 33 34 34 34 33 33 32 32 32 32 32 31 31 30 30 29 29 29 29 29 29 29 30
38 38 38 38 38 37 36 35 34 34 33 33 32 32 32 32 32 33 33 34 34 34 34 34 33 33 33 33 33 32 32 32 32 31 31 30 30 30 30 29 30 30
39 40 39 39 38 38 36 35 34 34 34 33 32 32 33 34 33 33 33 33 34 34 34 34 33 33 33 33 33 33 33 32 32 32 31 31 31 31 31 30 30 31
39 39 38 37 36 36 36 36 36 36 35 34 33 34 34 34 33 33 32 33 33 34 33 33 33 34 34 35 34 34 33 33 33 32 32 31 31 30 30 30 30 31
37 37 36 35 35 35 36 37 36 36 35 35 35 35 34 33 33 32 32 33 33 33 33 33 34 35 36 36 35 35 34 33 33 32 32 31 31 30 30 31 31 32
36 35 35 35 36 36 36 37 36 35 34 35 35 34 33 33 32 32 33 33 32 32 33 33 35 36 37 36 36 35 34 33 32 32 32 31 31 31 31 32 31 32
36 35 35 36 37 37 37 36 35 34 34 34 34 34 34 33 32 33 33 32 32 31 32 34 36 37 37 36 36 35 34 33 33 32 31 31 31 32 32 32 31 32
37 37 37 37 38 38 37 35 35 35 35 35 34 34 33 33 33 33 33 33 32 32 33 34 36 37 37 37 36 35 34 34 33 33 32 31 31 31 31 31 31 32
37 37 37 38 37 37 36 35 36 36 36 35 34 33 33 33 34 34 34 34 34 34 34 35 36 37 37 36 36 35 34 34 34 34 33 33 32 32 32 32 32 31
36 37 37 37 36 36 36 36 36 36 35 35 34 34 34 35 35 34 35 35 35 35 35 36 38 38 37 36 35 34 33 33 33 34 34 34 34 34 34 33 33 32
37 36 36 36 36 35 35 36 36 36 36 36 35 34 35 35 34 34 35 35 35 35 35 37 39 39 37 37 35 33 32 32 32 33 34 34 35 35 35 35 34 33
37 37 36 36 35 35 35 35 36 36 37 36 34 34 34 34 35 35 35 35 35 35 36 38 40 39 37 37 35 33 31 31 31 33 33 34 35 36 35 35 35 35
38 38 37 36 35 35 36 36 37 37 36 36 35 35 35 36 35 34 34 35 35 37 38 39 40 38 36 36 35 33 32 32 32 32 32 34 35 35 35 35 36 36
38 38 38 37 36 36 37 38 37 37 36 36 35 36 35 35 34 33 33 34 36 37 37 38 39 37 35 35 34 33 33 33 32 32 32 33 34 34 34 35 36 37
38 38 38 37 37 38 38 38 37 36 35 34 34 34 34 32 32 32 32 33 35 36 37 38 39 36 34 34 34 33 33 33 32 32 33 33 34 34 34 33 34 36
Wind_Direction
210 211 212 213 214 216 216 217 218 219 219 220 221 224 227 229 231 233 237 238 237 238 239 242 243 240 236 234 233 232 235 240 242 243 244 245 248 253 257 257 256 257
210 211 212 214 215 216 217 218 220 220 221 223 224 226 228 229 232 234 238 240 239 239 241 243 245 243 239 234 231 231 234 238 241 243 245 247 250 254 257 258 255 257
210 211 212 213 215 217 218 219 221 222 224 225 227 228 229 231 232 234 238 240 241 241 242 244 245 245 243 237 233 233 235 237 240 241 244 247 250 254 258 258 256 257
209 210 212 214 216 217 218 218 220 223 224 227 229 230 231 232 233 235 237 239 240 242 243 245 246 246 245 240 236 235 237 240 241 242 245 248 251 254 257 258 257 259
209 210 212 214 216 217 217 218 220 222 224 227 230 231 232 233 234 235 236 236 238 240 243 245 247 246 246 243 239 238 240 241 242 243 245 248 251 254 256 257 257 260
209 211 212 214 215 215 216 219 221 222 224 227 229 231 233 234 235 236 236 236 235 237 240 244 247 247 246 245 242 241 242 243 244 244 245 248 251 253 254 255 257 260
210 211 212 213 214 215 217 219 221 222 225 227 228 231 232 233 235 236 236 236 235 236 238 242 246 247 247 246 244 244 244 244 245 245 246 249 251 252 253 255 257 259
210 211 211 212 213 214 217 218 220 222 224 225 227 230 232 233 234 235 236 236 235 236 238 240 244 247 248 247 246 246 245 245 245 245 247 249 250 252 253 254 256 259
209 210 211 212 213 214 216 218 220 222 222 223 226 228 230 232 234 235 236 236 236 237 238 240 243 246 248 248 248 247 247 246 246 245 246 248 250 252 253 254 255 257
207 209 210 211 212 214 216 218 220 220 221 223 225 226 228 231 233 234 235 236 236 238 239 240 242 245 247 248 249 249 248 248 248 248 248 249 251 253 255 255 255 257
206 208 209 210 212 214 216 218 218 218 220 222 223 224 227 229 231 232 233 234 236 238 240 241 243 244 245 246 248 249 249 250 250 250 251 252 254 255 256 257 257 260
205 207 209 211 212 214 216 217 217 218 219 220 222 223 224 227 229 230 231 232 235 237 239 241 243 243 244 246 247 248 249 250 251 251 253 255 257 258 258 258 259 262
205 207 209 211 213 214 216 217 217 218 219 220 221 222 223 225 227 229 230 232 235 236 238 240 242 243 244 245 246 247 247 249 250 251 252 254 257 259 260 260 261 263
206 208 209 211 213 214 215 215 216 217 219 220 221 222 223 225 226 228 230 232 234 236 237 239 240 241 242 243 244 245 246 247 248 249 250 252 255 258 259 260 262 263
206 208 209 210 211 212 214 215 216 217 218 219 220 222 224 226 227 229 230 232 234 235 236 237 238 240 241 242 242 243 244 246 247 248 249 251 253 256 258 260 261 263
205 206 208 209 210 212 214 215 216 217 217 218 220 222 224 225 226 228 229 231 233 234 234 235 236 239 241 242 243 242 243 244 245 247 249 250 253 255 257 259 260 262
203 205 206 208 209 212 214 215 215 215 216 218 219 221 222 224 225 227 228 230 232 233 233 234 236 239 240 242 243 243 243 242 244 247 248 249 252 254 256 258 260 262
202 203 204 207 209 211 213 214 214 215 216 218 219 220 221 223 224 226 228 230 230 232 233 234 237 240 240 241 242 242 242 242 243 245 247 249 251 253 256 258 259 262
201 201 204 207 209 211 212 212 213 215 216 217 219 220 221 222 224 226 229 230 230 231 233 236 239 241 241 242 242 242 242 242 243 244 246 249 251 253 255 257 258 260
200 201 204 207 208 209 210 211 212 214 216 217 219 219 220 221 223 225 228 230 231 232 234 237 240 241 242 242 242 243 243 243 244 245 246 248 251 253 254 256 257 258
200 202 204 206 208 208 209 211 212 214 215 217 218 219 220 222 223 224 227 229 231 233 235 238 241 242 243 243 243 244 244 244 245 246 246 248 250 252 254 255 256 257
201 202 204 206 207 207 209 211 212 214 215 216 217 219 221 222 223 224 226 228 230 232 234 238 242 243 243 243 244 244 243 244 244 245 245 247 250 252 253 254 256 256
201 202 204 206 206 207 208 211 213 214 216 215 215 217 219 221 223 224 226 228 229 230 232 236 241 242 242 243 243 242 242 242 242 243 244 246 250 252 253 254 256 255
202 204 205 205 206 207 209 212 213 215 216 215 215 216 219 221 222 224 226 228 228 230 232 235 239 241 241 242 242 241 241 241 242 242 243 245 249 252 254 255 256 257
204 205 206 206 206 208 211 213 214 215 216 216 216 217 219 221 222 223 225 227 229 231 233 235 239 241 240 240 241 240 239 240 240 240 241 244 248 251 253 255 257 258
205 206 207 207 208 210 213 214 215 215 215 215 216 218 220 222 222 223 225 227 229 231 234 236 238 239 239 239 240 239 238 238 237 237 239 243 246 248 251 253 255 258
Height
807 810 812 815 817 819 821 824 825 827 829 830 832 834 836 838 841 843 844 845 847 848 849 851 852 853 854 855 857 857 858 858 859 860 861 862 862 863 863 864 864 865
805 807 810 812 814 817 819 821 823 825 827 829 830 832 834 837 839 841 843 844 845 847 848 849 850 851 853 854 855 856 856 857 858 859 859 860 861 861 862 862 863 863
802 805 807 809 811 814 817 819 822 823 825 827 829 831 832 834 837 839 841 843 844 845 846 848 849 850 851 852 854 855 855 856 856 857 858 858 859 860 860 861 862 862
799 802 804 807 809 811 814 817 819 821 823 825 827 829 830 832 834 836 838 840 842 844 845 846 847 848 849 851 852 853 853 854 855 856 857 857 858 858 859 860 860 861
797 799 801 804 806 809 812 814 816 818 820 822 824 827 828 830 832 833 835 838 840 841 843 844 845 846 848 849 850 851 852 853 854 855 855 855 856 857 857 858 859 859
794 797 799 802 804 807 809 811 813 815 817 820 822 824 826 828 829 831 832 834 837 839 841 842 843 844 845 847 848 849 849 851 852 853 853 854 854 855 856 857 857 857
792 794 797 800 802 804 806 808 811 813 815 817 819 821 823 825 827 828 830 832 834 836 838 840 841 842 843 845 846 846 847 849 850 851 851 852 853 853 854 855 855 855
788 791 794 797 799 802 803 806 808 810 812 815 816 818 820 822 824 826 828 829 831 833 835 837 838 840 841 842 843 844 845 846 847 848 849 850 851 851 851 852 853 853
785 788 791 794 796 799 800 803 805 807 810 812 814 816 818 820 822 824 826 827 829 831 833 834 836 837 839 840 841 842 842 844 845 845 846 847 848 848 849 850 851 851
782 785 788 791 793 796 797 800 802 804 807 809 811 814 815 818 820 822 824 825 827 828 830 831 833 834 836 837 838 839 840 841 842 843 844 845 845 846 847 848 848 848
779 782 785 787 790 793 795 797 800 802 804 806 809 811 813 815 817 819 821 822 824 825 826 828 830 831 833 834 835 836 837 838 839 840 841 842 843 844 845 845 846 846
775 778 781 783 786 789 792 795 797 800 802 804 806 808 810 812 814 816 818 819 821 822 823 825 826 828 830 831 833 834 835 836 837 838 839 840 841 841 842 843 843 844
771 774 776 779 782 786 789 792 794 797 799 801 803 805 807 809 811 813 815 816 818 819 820 822 824 825 827 828 830 831 832 833 834 836 837 837 838 839 840 841 841 842
767 770 773 776 779 782 786 788 791 793 795 798 800 802 804 806 808 810 812 814 815 816 818 819 821 822 823 825 826 827 829 830 831 833 834 835 836 836 837 838 839 839
763 767 770 773 776 779 782 785 787 789 792 794 797 798 800 803 805 807 809 811 812 813 815 817 818 818 819 820 822 823 825 827 828 830 831 832 833 834 835 836 836 836
761 764 767 771 774 776 779 781 784 786 788 791 793 795 797 799 802 804 806 807 809 810 812 813 814 814 815 816 818 820 822 824 825 826 828 829 830 831 832 832 833 833
758 761 764 767 770 773 775 778 780 783 785 787 789 792 794 796 799 800 802 804 806 807 808 809 809 809 811 813 815 817 819 821 822 823 825 826 827 828 828 829 830 831
754 758 761 764 766 769 771 774 777 780 782 784 786 788 791 793 795 796 798 800 802 804 805 805 805 805 807 809 811 813 816 818 819 820 822 823 824 825 825 826 827 828
750 754 756 759 762 765 768 771 774 776 778 780 782 785 787 789 791 793 795 797 799 800 801 801 801 802 804 806 808 810 813 815 816 818 819 820 821 821 822 823 824 825
747 750 752 755 758 762 765 767 769 771 774 776 779 782 784 785 787 789 790 792 794 796 797 797 797 798 800 802 805 807 809 811 813 814 816 817 817 818 819 820 821 822
743 746 749 752 755 758 761 763 765 767 770 773 775 777 779 780 782 784 786 788 790 792 793 793 793 795 797 799 801 804 806 808 809 811 812 813 814 814 815 816 817 818
739 742 745 748 752 754 757 759 761 763 766 768 771 773 775 777 779 780 782 784 786 788 789 789 788 791 793 795 798 800 803 804 806 807 808 809 809 810 811 812 813 814
735 738 741 744 748 750 753 755 757 759 762 764 767 769 771 772 774 776 777 779 781 783 784 784 784 786 789 792 794 797 799 800 801 802 804 804 805 806 807 808 809 810
731 734 737 740 743 746 748 750 753 755 757 760 763 764 766 768 770 772 774 775 777 778 779 780 780 782 785 788 790 793 795 796 797 798 800 800 801 801 803 804 804 805
727 730 733 736 739 741 743 745 748 750 753 756 759 760 762 765 767 769 770 771 773 774 775 776 777 779 782 784 786 788 790 792 793 795 795 796 796 797 798 799 800 800
723 726 729 732 734 736 739 741 744 747 750 753 755 757 759 762 763 765 766 767 769 770 771 772 773 775 778 780 782 784 786 788 790 790 791 792 792 793 794 795 796 796